Tracking 18852 objects as of 23-Nov-2017
HD Live streaming from Space Station
objects crossing your sky now

ZDPS 2B

Track ZDPS 2B now!
10-day predictions
ZDPS 2B is classified as:


NORAD ID: 40902
Int'l Code: 2015-049D
Perigee: 513.3 km
Apogee: 533.9 km
Inclination: 97.4 °
Period: 95.0 minutes
Semi major axis: 6894 km
RCS: Unknown
Launch date: September 19, 2015
Source: People's Republic of China (PRC)
Launch site: Taiyaun Space Center, China (TSC)
aabbcc
Your satellite tracking list
Your tracking list is empty




NASA's NSSDC Master Catalog

Two Line Element Set (TLE):
1 40902U 15049D   17326.81443729  .00001530  00000-0  81812-4 0  9994
2 40902  97.4470 329.8428 0014943  37.6408 322.5868 15.16491916120362
Source of the keplerian elements: AFSPC